Trail de Poulet

partenaires institutionnels

Bilan des finisheurs du Trail des 221 marches

PlaceDateCoureur N°NomPrénomSexeAnnéeClubVilleTemps
12021-05-2283LEGROSJARNOM198700:49:11
22021-05-0434VERCASSONJérémieM1988CREST00:53:15
32021-05-3049SOLEILLANTARNAUDM1996CREST00:54:10
42021-05-1649SOLEILLANTARNAUDM1996CREST00:54:50
52021-05-2487JACOBEMILIENM1988CAF CHAMBERYBARBY01:00:52
62021-05-0839MAILLETLUCASM2000TOURNON SUR RHONE01:01:48
72021-05-30112MOREAUPASCALM1963TCVDAUBENASSON01:02:00
82021-05-30113FERMONTCEDRICM197501:03:00
92021-05-30109MATTRASSYLVAINM1973COURIR LIVRON LOISIRLIVRON01:03:00
102021-05-1526BONVALLETDENISM1967TGDAOUSTE SUR SYE01:09:15
112021-05-2385GUERUDIDIERM1976CLUB ATHLETIQUE CRESTOISGRANE01:09:27
122021-05-0828ARGOUDMICHELM1961TGDSAILLANS01:09:33
132021-05-3063GALTIERGERRYM1968MONTOISON01:09:59
142021-05-1665TEULEJULIENM1986Courir à PoisyNONGLARD01:10:00
152021-05-2816CHAZELTHIERRYM1971AOUSTE SUR SYE01:10:24
162021-05-1350EPYNEAUYaëlleF1993CHANNAY SUR LATHAN01:10:42
172021-05-3090BLANVILLEQUENTINM1989PIEGROS LA CLASTRE01:11:00
182021-05-2343GUILLEMENETDAVIDM1975CREST01:11:41
192021-05-2421COULONSTEPHANEM1972DIVAJEU01:12:19
202021-05-1663GALTIERGERRYM1968MONTOISON01:12:49
212021-05-1663GALTIERGERRYM1968MONTOISON01:13:00
222021-05-2537SERREStéphaneM1972TRGVLivron-sur-Drôme01:14:08
232021-05-0416CHAZELTHIERRYM1971AOUSTE SUR SYE01:14:47
242021-05-236BEYADRIENM1980 VAUNAVEYS01:14:50
252021-05-1843GUILLEMENETDAVIDM1975CREST01:15:00
262021-05-086BEYADRIENM1980 VAUNAVEYS01:15:47
272021-05-2641TOMTOMIANAïdaF1985BOURG LES VALENCE01:17:31
282021-05-2641TOMTOMIANAïdaF1985BOURG LES VALENCE01:17:31
292021-05-2069PASTEURFrédéricM1972CHABEUIL01:17:42
302021-05-0925DORELTHIERRYM1965CREST01:18:00
312021-05-1463GALTIERGERRYM1968MONTOISON01:19:50
322021-05-1663GALTIERGERRYM1968MONTOISON01:20:00
332021-05-30107DUGLOUDCEDRICM1977EURRE01:20:10
342021-05-0947RENARDLAURENTM1976MASSILIA RUN HEARTMARSEILLE01:21:30
352021-05-0222COULONTIMEOM2009DIVAJEU01:23:01
362021-05-0221COULONSTEPHANEM1972DIVAJEU01:23:21
372021-05-0738BILLIONMARIANNEF1995AOUSTE SUR SYE01:24:21
382021-05-31114DOREESEBASTIENM1986BOURG LES VALENCE01:24:27
392021-05-293CLARYJEAN MARCM1963Crest Athlétique ClubCREST01:28:00
402021-05-29102DELPONTAurélieF1975COURIR LIVRON LOISIRLIVRON SUR DROME01:32:00
412021-05-2999DUNIEREAMANDAF1981CLLLORIOL SUR DROME01:32:00
422021-05-0224DURETFrançoisM1968VERTICAL RAID ORBLABEGUDE01:33:09
432021-05-0223JAUMEVANESSAF1977VERTICAL RAID ORBCREST01:33:19
442021-05-2486MICOULETXAVIERM1979TCVDMIRABEL ET BLACONS01:34:00
452021-05-2486MICOULETXAVIERM1979TCVDMIRABEL ET BLACONS01:34:00
462021-05-0914TESTARDFREDERICM1970TGDGRANE01:36:59
472021-05-31103STEINMATTHIASM1986FRIEDEWALD01:37:54
482021-05-28104STEINELISAF1985FRIEDEWALD01:37:55
492021-05-3118SEBELINIrèneF1979TGDCREST01:40:00
502021-05-0835DINETSébastienM1985MONTELIER01:40:04
512021-05-0836COURTIALAmélieF1988MONTELIER01:41:13
522021-05-2998OLLIVIERCHARLOTTEF1992COURIR LIVRON LOISIRLIVRON SUR DROME01:41:23
532021-05-0220MARNASFREDERICM1985CREST01:43:38
542021-05-2381CHESNAISANNICKF1959FREE RUNNERS LE CLUBHOSTUN01:48:27
552021-05-3118SEBELINIrèneF1979TGDCREST01:49:00
562021-05-2370BURGAUDEMILIEF1981COMBOVIN01:49:35
572021-05-2384CEYSSONJEAN-PIERREM1968COACHSPORTS26MALISSARD01:49:44
582021-05-2691DUPREEMMAF2007CREST01:52:30
592021-05-0333TRANSINNEBORISM1969CREST01:54:00
602021-05-2468SOULIEALIXF2004CREST01:55:00
612021-05-0114TESTARDFREDERICM1970TGDGRANE01:58:00
622021-05-0941TOMTOMIANAïdaF1985BOURG LES VALENCE02:05:39
632021-05-1251BRIANDROBERTM1955GRANE02:30:33
642021-05-1252BRIANDMARIE PIERREF1956TGDGRANE02:31:38
652021-05-1866SARMEOPHILIPPEM1961JOGGING CLUB PORTOISVALENCE02:31:48
662021-05-2998OLLIVIERCHARLOTTEF1992COURIR LIVRON LOISIRLIVRON SUR DROME02:55:34
672021-05-1342ROCHEVALERIEF1978TGD ALLEXCREST03:33:13